| time (UTC) | temp F | wind direction | speed knots | gust knots | rain 1hr in | rain 24hr in | rain mn in | humidity % | barometer mb |
| 20260506104102 | 69 | 250 | 6.1 | 7.0 | 0.00 | 0.00 | 0.00 | 35 | 1009.3 |
| 20260506103002 | 68 | 250 | 6.1 | 7.0 | 0.00 | 0.00 | 0.00 | 36 | 1009.2 |
| 20260506101901 | 68 | 250 | 4.3 | 7.0 | 0.00 | 0.00 | 0.00 | 35 | 1009.3 |
| 20260506100801 | 68 | 250 | 5.2 | 7.0 | 0.00 | 0.00 | 0.00 | 34 | 1009.1 |
| 20260506095700 | 68 | 250 | 6.1 | 7.0 | 0.00 | 0.00 | 0.00 | 34 | 1009.0 |
| 20260506094600 | 69 | 250 | 5.2 | 7.0 | 0.00 | 0.00 | 0.00 | 32 | 1009.0 |
| 20260506093459 | 69 | 250 | 5.2 | 6.1 | 0.00 | 0.00 | 0.00 | 32 | 1008.8 |
| 20260506092358 | 69 | 250 | 5.2 | 7.0 | 0.00 | 0.00 | 0.00 | 32 | 1008.7 |
| 20260506091259 | 69 | 250 | 5.2 | 7.0 | 0.00 | 0.00 | 0.00 | 31 | 1008.7 |
| 20260506090157 | 69 | 250 | 5.2 | 7.8 | 0.00 | 0.00 | 0.00 | 31 | 1008.7 |
| 20260506085056 | 70 | 244 | 7.8 | 8.7 | 0.00 | 0.00 | 0.00 | 30 | 1009.0 |
| 20260506083956 | 70 | 241 | 7.0 | 8.7 | 0.00 | 0.00 | 0.00 | 30 | 1008.8 |
| 20260506082855 | 70 | 244 | 7.8 | 8.7 | 0.00 | 0.00 | 0.00 | 31 | 1008.6 |
| 20260506081754 | 69 | 266 | 7.0 | 10.4 | 0.00 | 0.00 | 0.00 | 33 | 1008.7 |
| 20260506080654 | 69 | 273 | 6.1 | 10.4 | 0.00 | 0.00 | 0.00 | 32 | 1008.8 |
| 20260506073352 | 73 | 142 | 2.6 | 5.2 | 0.00 | 0.00 | 0.00 | 26 | 1008.4 |
| 20260506072251 | 73 | 164 | 2.6 | 7.8 | 0.00 | 0.00 | 0.00 | 26 | 1008.5 |
| 20260506071151 | 74 | 164 | 2.6 | 6.1 | 0.00 | 0.00 | 0.00 | 25 | 1008.4 |
| 20260506061648 | 73 | 141 | 2.6 | 4.3 | 0.00 | 0.00 | 0.00 | 25 | 1008.3 |
| 20260506060547 | 73 | 141 | 4.3 | 10.4 | 0.00 | 0.00 | 0.00 | 24 | 1008.4 |
| 20260506051044 | 72 | 139 | 6.1 | 10.4 | 0.00 | 0.00 | 0.00 | 27 | 1008.3 |
| 20260506044843 | 72 | 142 | 7.0 | 10.4 | 0.00 | 0.00 | 0.00 | 28 | 1008.5 |
| 20260506043742 | 71 | 135 | 7.0 | 10.4 | 0.00 | 0.00 | 0.00 | 29 | 1008.5 |
| 20260506042641 | 73 | 125 | 6.1 | 9.6 | 0.00 | 0.00 | 0.00 | 27 | 1008.7 |
| 20260506041541 | 73 | 136 | 4.3 | 7.8 | 0.00 | 0.00 | 0.00 | 26 | 1008.7 |
| 20260506040440 | 72 | 122 | 5.2 | 7.0 | 0.00 | 0.00 | 0.00 | 27 | 1008.2 |
| 20260506035340 | 72 | 122 | 4.3 | 7.0 | 0.00 | 0.00 | 0.00 | 30 | 1008.1 |
| 20260506034239 | 72 | 116 | 6.1 | 8.7 | 0.00 | 0.00 | 0.00 | 27 | 1008.1 |
| 20260506033138 | 72 | 103 | 7.0 | 8.7 | 0.00 | 0.00 | 0.00 | 28 | 1007.6 |
| 20260506032038 | 72 | 122 | 5.2 | 6.1 | 0.00 | 0.00 | 0.00 | 28 | 1008.1 |
| 20260506030937 | 72 | 112 | 7.0 | 9.6 | 0.00 | 0.00 | 0.00 | 29 | 1007.8 |
| 20260506025836 | 72 | 106 | 7.8 | 9.6 | 0.00 | 0.00 | 0.00 | 28 | 1007.8 |
| 20260506024736 | 72 | 106 | 7.8 | 9.6 | 0.00 | 0.00 | 0.00 | 29 | 1007.5 |
| 20260506023635 | 72 | 105 | 7.8 | 8.7 | 0.00 | 0.00 | 0.00 | 29 | 1007.7 |
| 20260506022535 | 72 | 98 | 7.8 | 10.4 | 0.00 | 0.00 | 0.00 | 29 | 1007.1 |
| 20260506021434 | 73 | 101 | 8.7 | 10.4 | 0.00 | 0.00 | 0.00 | 27 | 1007.3 |
| 20260506020333 | 73 | 106 | 6.1 | 7.0 | 0.00 | 0.00 | 0.00 | 27 | 1007.5 |
| 20260506015233 | 74 | 79 | 4.3 | 5.2 | 0.00 | 0.00 | 0.00 | 25 | 1007.0 |
| 20260506014132 | 74 | 78 | 6.1 | 7.0 | 0.00 | 0.00 | 0.00 | 26 | 1006.9 |
| 20260506013032 | 74 | 63 | 4.3 | 5.2 | 0.00 | 0.00 | 0.00 | 26 | 1006.9 |
| 20260506011931 | 75 | 39 | 4.3 | 7.8 | 0.00 | 0.00 | 0.00 | 25 | 1006.7 |
| 20260506010830 | 75 | 43 | 4.3 | 7.0 | 0.00 | 0.00 | 0.00 | 25 | 1006.7 |
| 20260506005730 | 76 | 29 | 4.3 | 7.8 | 0.00 | 0.00 | 0.00 | 24 | 1006.8 |
| 20260506004629 | 76 | 4 | 5.2 | 7.8 | 0.00 | 0.00 | 0.00 | 23 | 1006.7 |
| 20260506003529 | 77 | 4 | 5.2 | 7.8 | 0.00 | 0.00 | 0.00 | 22 | 1006.7 |
| 20260506002428 | 77 | 26 | 6.1 | 8.7 | 0.00 | 0.00 | 0.00 | 22 | 1006.6 |
| 20260506001327 | 77 | 359 | 7.0 | 9.6 | 0.00 | 0.00 | 0.00 | 22 | 1006.5 |
| 20260506000227 | 78 | 4 | 7.8 | 10.4 | 0.00 | 0.00 | 0.00 | 21 | 1006.6 |
| 20260505235126 | 78 | 354 | 8.7 | 13.0 | 0.00 | 0.00 | 0.00 | 20 | 1006.7 |
| 20260505234025 | 79 | 354 | 9.6 | 12.2 | 0.00 | 0.00 | 0.00 | 20 | 1006.7 |
| 20260505232925 | 79 | 339 | 10.4 | 14.8 | 0.00 | 0.00 | 0.00 | 21 | 1006.6 |
| 20260505231824 | 79 | 343 | 9.6 | 15.6 | 0.00 | 0.00 | 0.00 | 20 | 1006.6 |
| 20260505230724 | 80 | 326 | 10.4 | 13.9 | 0.00 | 0.00 | 0.00 | 20 | 1006.6 |
| 20260505225623 | 80 | 299 | 10.4 | 15.6 | 0.00 | 0.00 | 0.00 | 21 | 1006.6 |
| 20260505224522 | 80 | 317 | 9.6 | 14.8 | 0.00 | 0.00 | 0.00 | 22 | 1006.5 |
| 20260505223422 | 80 | 314 | 9.6 | 15.6 | 0.00 | 0.00 | 0.00 | 23 | 1006.4 |
| 20260505222321 | 80 | 343 | 10.4 | 14.8 | 0.00 | 0.00 | 0.00 | 23 | 1006.6 |
| 20260505221220 | 80 | 328 | 12.2 | 14.8 | 0.00 | 0.00 | 0.00 | 24 | 1006.7 |
| 20260505220120 | 80 | 324 | 13.0 | 16.5 | 0.00 | 0.00 | 0.00 | 23 | 1006.7 |
| 20260505215019 | 82 | 308 | 9.6 | 14.8 | 0.00 | 0.00 | 0.00 | 23 | 1007.0 |
| 20260505213919 | 82 | 323 | 10.4 | 14.8 | 0.00 | 0.00 | 0.00 | 23 | 1006.8 |
| 20260505212818 | 84 | 324 | 9.6 | 12.2 | 0.00 | 0.00 | 0.00 | 20 | 1006.9 |
| 20260505211717 | 83 | 314 | 11.3 | 15.6 | 0.00 | 0.00 | 0.00 | 21 | 1006.9 |
| 20260505210617 | 84 | 289 | 11.3 | 17.4 | 0.00 | 0.00 | 0.00 | 20 | 1007.0 |
| 20260505205516 | 83 | 289 | 7.8 | 12.2 | 0.00 | 0.00 | 0.00 | 22 | 1007.1 |
| 20260505204416 | 84 | 278 | 7.8 | 15.6 | 0.00 | 0.00 | 0.00 | 21 | 1007.5 |
| 20260505203315 | 84 | 323 | 6.1 | 9.6 | 0.00 | 0.00 | 0.00 | 21 | 1007.7 |
| 20260505202214 | 83 | 258 | 7.0 | 11.3 | 0.00 | 0.00 | 0.00 | 22 | 1007.6 |
| 20260505201114 | 83 | 280 | 7.8 | 12.2 | 0.00 | 0.00 | 0.00 | 21 | 1007.7 |
| 20260505200013 | 82 | 282 | 8.7 | 12.2 | 0.00 | 0.00 | 0.00 | 22 | 1007.6 |
| 20260505194912 | 82 | 347 | 7.8 | 13.0 | 0.00 | 0.00 | 0.00 | 22 | 1007.5 |
| 20260505193812 | 83 | 308 | 7.0 | 10.4 | 0.00 | 0.00 | 0.00 | 21 | 1007.8 |
| 20260505192711 | 82 | 314 | 7.8 | 12.2 | 0.00 | 0.00 | 0.00 | 22 | 1007.9 |
| 20260505191611 | 81 | 349 | 5.2 | 7.8 | 0.00 | 0.00 | 0.00 | 23 | 1008.2 |
| 20260505190510 | 81 | 296 | 8.7 | 13.9 | 0.00 | 0.00 | 0.00 | 23 | 1008.4 |
| 20260505185409 | 80 | 334 | 7.0 | 13.0 | 0.00 | 0.00 | 0.00 | 22 | 1008.4 |
| 20260505184309 | 81 | 20 | 6.1 | 11.3 | 0.00 | 0.00 | 0.00 | 22 | 1008.4 |
| 20260505183208 | 80 | 313 | 6.1 | 10.4 | 0.00 | 0.00 | 0.00 | 23 | 1008.8 |
| 20260505182108 | 80 | 286 | 7.8 | 13.0 | 0.00 | 0.00 | 0.00 | 23 | 1008.7 |
| 20260505181007 | 80 | 307 | 7.8 | 12.2 | 0.00 | 0.00 | 0.00 | 23 | 1008.7 |
| 20260505175906 | 79 | 291 | 9.6 | 12.2 | 0.00 | 0.00 | 0.00 | 22 | 1008.8 |
| 20260505174806 | 80 | 285 | 8.7 | 14.8 | 0.00 | 0.00 | 0.00 | 22 | 1008.6 |
| 20260505173705 | 79 | 344 | 9.6 | 14.8 | 0.00 | 0.00 | 0.00 | 24 | 1008.9 |
| 20260505172604 | 78 | 312 | 12.2 | 15.6 | 0.00 | 0.00 | 0.00 | 25 | 1009.1 |
| 20260505171504 | 78 | 293 | 11.3 | 14.8 | 0.00 | 0.00 | 0.00 | 24 | 1009.2 |
| 20260505170403 | 78 | 283 | 11.3 | 18.2 | 0.00 | 0.00 | 0.00 | 24 | 1009.3 |
| 20260505165305 | 77 | 301 | 13.0 | 17.4 | 0.00 | 0.00 | 0.00 | 24 | 1009.2 |
| 20260505164202 | 77 | 316 | 13.9 | 19.1 | 0.00 | 0.00 | 0.00 | 25 | 1008.8 |
| 20260505163101 | 76 | 316 | 13.0 | 18.2 | 0.00 | 0.00 | 0.00 | 25 | 1009.0 |
| 20260505162001 | 77 | 291 | 13.0 | 16.5 | 0.00 | 0.00 | 0.00 | 23 | 1009.0 |
| 20260505160900 | 77 | 320 | 12.2 | 15.6 | 0.00 | 0.00 | 0.00 | 24 | 1009.0 |
| 20260505152458 | 75 | 303 | 9.6 | 15.6 | 0.00 | 0.00 | 0.00 | 27 | 1008.8 |
| 20260505151357 | 74 | 276 | 7.0 | 11.3 | 0.00 | 0.00 | 0.00 | 29 | 1008.8 |
| 20260505150258 | 73 | 272 | 7.0 | 9.6 | 0.00 | 0.00 | 0.00 | 33 | 1008.8 |
| 20260505130152 | 68 | 265 | 7.0 | 7.8 | 0.00 | 0.00 | 0.00 | 32 | 1007.6 |
| 20260505123948 | 69 | 241 | 6.1 | 8.7 | 0.00 | 0.00 | 0.00 | 31 | 1007.1 |
| 20260505122848 | 69 | 260 | 7.0 | 8.7 | 0.00 | 0.00 | 0.00 | 31 | 1007.1 |
| 20260505121748 | 68 | 256 | 7.0 | 8.7 | 0.00 | 0.00 | 0.00 | 32 | 1006.9 |
| 20260505120647 | 68 | 272 | 7.8 | 9.6 | 0.00 | 0.00 | 0.00 | 33 | 1006.6 |
| 20260505115621 | 68 | 258 | 7.8 | 9.6 | 0.00 | 0.00 | 0.00 | 33 | 1006.5 |
| 20260505115546 | 68 | 258 | 7.8 | 9.6 | 0.00 | 0.00 | 0.00 | 33 | 1006.5 |
| 20260505114446 | 68 | 253 | 7.8 | 10.4 | 0.00 | 0.00 | 0.00 | 34 | 1006.3 |
| 20260505113345 | 68 | 263 | 7.8 | 9.6 | 0.00 | 0.00 | 0.00 | 34 | 1006.3 |
| 20260505112244 | 68 | 272 | 7.8 | 9.6 | 0.00 | 0.00 | 0.00 | 34 | 1006.3 |
| 20260505111144 | 68 | 260 | 8.7 | 9.6 | 0.00 | 0.00 | 0.00 | 34 | 1006.2 |